[[{"header":{"parameterUnit":"m.s-1","parameterCategory":1,"la1":30.2991,"la2":30.254,"lo1":-89.0895,"lo2":-89.0444,"dy":0.0017,"dx":0.0017,"nx":28,"ny":28,"refTime":"2025-07-26T21:00:00:Z","depth":0,"parameterNumber":2,"parameterNumberName":"U-component_of_WINDS"},"data":[0,0,0,0,0,0,0,0,0,0,0,0,0,0,0,0,0,0,0,0,0,0,0,0,0,0,0,0,0,0,0,0,0,0,0,0,0,0,0,0,0,0,0,0,0,0,0,0,0,0,0,0,0,0,0,0,0,0,1.4303,1.4304,0,1.4378,1.4379,1.438,1.4386,1.4385,1.4384,1.4383,1.4458,1.4461,1.4464,0,0,0,0,0,0,0,0,0,0,0,0,0,1.416,1.4162,1.4303,1.4304,1.4305,1.4378,1.4379,1.438,1.4386,1.4385,1.4384,1.4383,1.4457,1.446,1.4464,0,0,0,0,0,0,0,0,0,0,0,0,0,1.4227,1.4163,1.4303,1.4316,1.4318,1.4378,1.4379,1.438,1.4386,1.4385,1.4384,1.4383,1.4456,1.446,1.4464,1.4514,0,0,1.4477,1.4479,0,0,0,0,0,0,0,0,1.4223,1.4232,1.4314,1.4316,1.4318,1.4371,1.4356,1.4425,1.4386,1.436,1.4383,1.4382,1.443,1.4436,1.4453,1.4518,1.4521,1.4477,1.448,1.4481,1.4483,0,0,0,0,0,0,0,1.4219,1.4229,1.4332,1.4315,1.4317,1.4318,1.4326,1.4369,1.4401,1.4363,1.4363,1.4372,1.4431,1.4449,1.4455,1.4522,1.4477,1.4481,1.4483,1.4485,1.4628,1.4629,0,0,0,0,0,0,1.4212,1.4225,1.433,1.4335,1.4267,1.4321,1.433,1.4355,1.4401,1.4406,1.4373,1.4372,1.4443,1.445,1.4457,1.4516,1.4481,1.4485,1.4488,1.4626,1.4628,1.4629,0,0,0,0,0,0,1.4209,1.4221,1.4327,1.428,1.4294,1.4325,1.4353,1.4358,1.4376,1.4409,1.4414,1.4386,1.4442,1.4452,1.4499,1.4519,1.4487,1.4491,1.4625,1.4627,1.4629,1.4636,0,0,0,0,0,0,1.4205,1.422,1.424,1.4281,1.4296,1.4369,1.4354,1.436,1.4383,1.4382,1.4422,1.4427,1.4442,1.4493,1.4503,1.4524,1.4494,1.4623,1.4626,1.4628,1.4634,1.4638,1.4641,0,0,0,0,0,1.4199,1.424,1.4241,1.4254,1.4323,1.437,1.4379,1.4395,1.4385,1.4404,1.4425,1.4426,1.4516,1.4498,1.451,1.4532,1.4622,1.4625,1.4628,1.4633,1.4637,1.4641,0,0,0,0,0,0,1.4201,1.4245,1.4248,1.4302,1.4332,1.4371,1.4397,1.44,1.4433,1.4431,1.445,1.4458,1.4505,1.4524,1.4503,1.4581,1.4567,1.4573,1.4567,1.4572,1.4575,1.4569,1.4498,0,0,0,0,0,1.4207,1.4243,1.428,1.4325,1.434,1.4365,1.4387,1.4397,1.4428,1.4441,1.4465,1.4495,1.4529,1.4552,1.4586,1.4637,1.4644,1.4658,1.4662,1.4665,1.4668,1.4694,1.47,1.4639,1.4639,1.4639,0,0,1.4221,1.425,1.4272,1.4325,1.435,1.4385,1.4376,1.4415,1.444,1.4447,1.4492,1.4511,1.4546,1.4595,1.4617,1.4611,1.4687,1.4668,1.467,1.4673,1.4698,1.4703,1.4708,1.4641,1.4641,1.464,0,0,1.4264,1.4291,1.4329,1.4354,1.4391,1.4408,1.4417,1.4455,1.4467,1.4514,1.4519,1.4549,1.4609,1.4632,1.4652,1.4702,1.4703,1.4712,1.473,1.4755,1.476,1.4764,1.4779,1.4785,1.4716,1.4716,1.4716,0,1.4276,1.4331,1.4349,1.4386,1.4408,1.4416,1.4454,1.4477,1.4523,1.4537,1.453,1.4604,1.4628,1.4681,1.4692,1.4709,1.4718,1.4707,1.4758,1.4763,1.4767,1.4781,1.4787,1.4717,1.4717,1.4717,1.4717,0,1.4343,1.438,1.4407,1.4451,1.4476,1.4514,1.4536,1.4559,1.4566,1.4583,1.4629,1.4658,1.4696,1.471,1.4718,1.4763,1.4758,1.4755,1.4741,1.4773,1.4787,1.4793,1.4718,1.4718,1.4718,1.4717,0,0,1.4389,1.4441,1.445,1.4469,1.451,1.4538,1.4575,1.4613,1.4632,1.4663,1.4693,1.4742,1.4738,1.4761,1.4771,1.4793,1.4827,1.4786,1.4787,1.4791,1.4876,1.4877,1.4884,1.4829,1.483,1.4831,1.4872,0,1.4434,1.4501,1.4517,1.4573,1.4607,1.4613,1.4645,1.4673,1.4689,1.4718,1.4736,1.477,1.4764,1.4777,1.4799,1.4818,1.4844,1.4816,1.4854,1.4856,1.4844,1.4891,1.4893,1.4931,1.4878,1.4879,1.488,0,1.4497,1.4529,1.4588,1.4622,1.4637,1.4665,1.47,1.4729,1.4759,1.4769,1.4793,1.4801,1.4837,1.4823,1.4872,1.4852,1.4869,1.4881,1.4883,1.4886,1.4869,1.4893,1.4944,1.4949,1.4889,1.4889,1.4888,0,1.4521,1.4579,1.4621,1.4638,1.4679,1.4699,1.4717,1.4746,1.4767,1.4797,1.481,1.4844,1.4862,1.4888,1.4903,1.4892,1.4951,1.4938,1.4958,1.4958,1.4969,1.4968,1.5021,1.4983,1.4983,1.4983,1.4983,0,1.4569,1.4604,1.4633,1.4658,1.4698,1.4715,1.4753,1.4771,1.4797,1.4825,1.4833,1.4859,1.4879,1.4908,1.492,1.4958,1.4966,1.4974,1.4976,1.4972,1.4971,1.4982,1.4979,1.4984,1.4984,1.4984,1.4984,0,1.4602,1.4623,1.4669,1.4704,1.4714,1.4741,1.477,1.4795,1.4811,1.4846,1.4855,1.488,1.4914,1.4933,1.4975,1.4983,1.5024,1.5026,1.5014,1.5015,1.5033,1.503,1.5094,1.5102,1.506,1.5061,1.5061,0,1.463,1.4658,1.4696,1.4715,1.4734,1.4766,1.4787,1.4804,1.4826,1.4861,1.4881,1.4915,1.4943,1.4996,1.5017,1.5049,1.505,1.507,1.5055,1.5049,1.5048,1.5045,1.5047,1.5073,1.5073,1.5073,1.5074,0,1.4678,1.4686,1.4717,1.4751,1.4776,1.4803,1.483,1.4845,1.4867,1.4891,1.4925,1.4947,1.4989,1.5022,1.5055,1.5072,1.5076,1.5078,1.5084,1.5079,1.507,1.5073,1.5019,1.5076,1.5076,1.5076,1.5076,1.5076,1.4708,1.4732,1.4761,1.4795,1.4817,1.4841,1.4865,1.4884,1.4913,1.495,1.4958,1.4994,1.5021,1.5066,1.5084,1.5111,1.5107,1.5116,1.5118,1.5119,1.5119,1.5067,1.5117,1.5117,1.5117,1.5117,1.5117,0,1.4754,1.4773,1.4803,1.4841,1.4866,1.4868,1.4898,1.4918,1.495,1.4976,1.5003,1.5041,1.5072,1.5096,1.5127,1.5144,1.5147,1.5152,1.515,1.5153,1.5122,1.5112,1.5149,1.5149,1.5149,1.5149,1.5149,1.5149,1.478,1.482,1.4831,1.4881,1.49,1.4935,1.4951,1.4973,1.4993,1.5036,1.5062,1.5077,1.5101,1.5135,1.5163,1.5169,1.5179,1.5184,1.519,1.5159,1.5156,1.5152,1.5144,1.5186,1.5186,1.5219,1.5219,1.5219]},{"header":{"parameterUnit":"m.s-1","parameterCategory":1,"la1":30.2991,"la2":30.254,"lo1":-89.0895,"lo2":-89.0444,"dy":0.0017,"dx":0.0017,"nx":28,"ny":28,"refTime":"2025-07-26T21:00:00:Z","depth":0,"parameterNumber":3,"parameterNumberName":"V-component_of_WINDS"},"data":[0,0,0,0,0,0,0,0,0,0,0,0,0,0,0,0,0,0,0,0,0,0,0,0,0,0,0,0,0,0,0,0,0,0,0,0,0,0,0,0,0,0,0,0,0,0,0,0,0,0,0,0,0,0,0,0,0,0,2.3043,2.3043,0,2.3066,2.3066,2.3067,2.3016,2.3015,2.3013,2.3012,2.3034,2.3036,2.3038,0,0,0,0,0,0,0,0,0,0,0,0,0,2.295,2.2952,2.3043,2.3043,2.3043,2.3066,2.3066,2.3067,2.3017,2.3015,2.3013,2.3011,2.3033,2.3036,2.3038,0,0,0,0,0,0,0,0,0,0,0,0,0,2.2984,2.2953,2.3042,2.3021,2.3019,2.3066,2.3067,2.3067,2.3017,2.3015,2.3012,2.301,2.3032,2.3036,2.3039,2.3107,0,0,2.3048,2.305,0,0,0,0,0,0,0,0,2.2982,2.2987,2.3024,2.3022,2.3021,2.3036,2.3042,2.308,2.3018,2.3018,2.3011,2.3009,2.3036,2.3039,2.3049,2.3108,2.3109,2.3049,2.3051,2.3052,2.3053,0,0,0,0,0,0,0,2.298,2.2986,2.3052,2.3024,2.3022,2.3009,2.3011,2.3049,2.304,2.3018,2.3014,2.3018,2.3035,2.3046,2.3049,2.311,2.3049,2.3051,2.3053,2.3055,2.3223,2.3225,0,0,0,0,0,0,2.298,2.2984,2.3051,2.3053,2.2995,2.3012,2.3015,2.3033,2.304,2.3039,2.302,2.3015,2.3042,2.3045,2.305,2.3128,2.3052,2.3055,2.3057,2.322,2.3223,2.3226,0,0,0,0,0,0,2.2979,2.2987,2.305,2.3017,2.3024,2.3017,2.3038,2.3035,2.3046,2.3042,2.3039,2.3033,2.304,2.3045,2.3093,2.3128,2.3056,2.3059,2.3217,2.3221,2.3225,2.3287,0,0,0,0,0,0,2.2976,2.2987,2.3014,2.3018,2.3026,2.3094,2.304,2.3037,2.3052,2.3046,2.3053,2.3052,2.3038,2.3088,2.3096,2.3131,2.3062,2.3214,2.3219,2.3224,2.3282,2.3292,2.3302,0,0,0,0,0,2.2973,2.303,2.3015,2.3024,2.306,2.3096,2.3101,2.3085,2.3055,2.3081,2.3078,2.3052,2.3123,2.3094,2.3102,2.3139,2.3212,2.3218,2.3223,2.3277,2.329,2.3301,0,0,0,0,0,0,2.303,2.3031,2.3014,2.3075,2.3086,2.3088,2.312,2.3099,2.3119,2.3113,2.3091,2.3093,2.3144,2.3146,2.3113,2.3204,2.3162,2.317,2.32,2.3213,2.3223,2.3221,2.3064,0,0,0,0,0,2.305,2.308,2.3078,2.3132,2.3139,2.3129,2.3144,2.313,2.3141,2.3145,2.3145,2.3156,2.318,2.3197,2.3219,2.3282,2.3281,2.3311,2.3321,2.3329,2.3336,2.3366,2.3379,2.3245,2.3245,2.3245,0,0,2.3091,2.3095,2.3115,2.3144,2.3151,2.3181,2.3133,2.3168,2.3189,2.315,2.3194,2.3195,2.3205,2.326,2.3284,2.3263,2.3373,2.3337,2.3343,2.3345,2.3374,2.3386,2.3398,2.3249,2.3248,2.3248,0,0,2.318,2.3187,2.3231,2.3239,2.325,2.3242,2.3253,2.3258,2.3256,2.3301,2.3271,2.3296,2.334,2.3347,2.3357,2.3447,2.3422,2.3454,2.3506,2.3536,2.3547,2.3556,2.3586,2.3597,2.3461,2.3461,2.3461,0,2.3229,2.3274,2.3257,2.3292,2.3305,2.3271,2.3314,2.3322,2.334,2.3348,2.3325,2.3377,2.3382,2.3436,2.3458,2.3468,2.3477,2.3453,2.3547,2.3556,2.3564,2.3593,2.3604,2.3465,2.3465,2.3464,2.3464,0,2.3333,2.3365,2.3399,2.3416,2.3432,2.3472,2.3459,2.3477,2.3462,2.3456,2.35,2.3504,2.3526,2.3538,2.3524,2.359,2.3577,2.3551,2.3508,2.3581,2.3607,2.3618,2.347,2.3469,2.3468,2.3467,0,0,2.346,2.3465,2.3478,2.3484,2.3493,2.3516,2.3553,2.3574,2.3589,2.3602,2.3631,2.3668,2.3643,2.3654,2.364,2.3667,2.3735,2.3637,2.3637,2.3653,2.3805,2.3824,2.3837,2.3719,2.3721,2.3723,2.3804,0,2.3547,2.3611,2.3594,2.3657,2.3685,2.3651,2.3683,2.3691,2.3687,2.3708,2.3703,2.3729,2.3695,2.3701,2.3726,2.3721,2.3765,2.3715,2.3744,2.3746,2.3742,2.3851,2.3871,2.3947,2.3814,2.3816,2.3817,0,2.3657,2.3673,2.3739,2.374,2.3751,2.378,2.3796,2.3818,2.3826,2.382,2.3832,2.3812,2.3846,2.3805,2.3851,2.3818,2.3829,2.3828,2.3831,2.3831,2.3785,2.3853,2.3972,2.3982,2.3834,2.3832,2.3831,0,2.374,2.3778,2.3822,2.3828,2.3832,2.3852,2.3855,2.386,2.3873,2.3887,2.3895,2.3913,2.3923,2.3937,2.3922,2.3894,2.397,2.3928,2.3965,2.3966,2.3982,2.3981,2.4102,2.3992,2.3992,2.3991,2.3991,0,2.3838,2.3879,2.3859,2.3885,2.3929,2.3909,2.3953,2.3952,2.3956,2.398,2.3953,2.3977,2.3956,2.3978,2.3966,2.4005,2.401,2.4006,2.4002,2.4007,2.4008,2.4013,2.4007,2.3994,2.3994,2.3993,2.3993,0,2.3938,2.3927,2.3971,2.397,2.3971,2.4003,2.4001,2.4025,2.4018,2.4049,2.4056,2.4045,2.4068,2.4054,2.4079,2.4071,2.4121,2.4111,2.4118,2.4115,2.4153,2.4149,2.428,2.4296,2.4177,2.4178,2.4179,0,2.4001,2.4031,2.4032,2.4047,2.4051,2.4075,2.4087,2.4068,2.4082,2.4092,2.4114,2.4135,2.415,2.4189,2.4183,2.4201,2.419,2.4234,2.4192,2.4196,2.4188,2.4186,2.4188,2.4243,2.4244,2.4245,2.4246,0,2.4112,2.4104,2.4123,2.414,2.4155,2.4168,2.4178,2.4191,2.4172,2.4189,2.4212,2.4224,2.4248,2.4269,2.4283,2.4285,2.4262,2.426,2.4269,2.4274,2.4276,2.4274,2.414,2.4256,2.4255,2.4255,2.4254,2.4254,2.4194,2.4218,2.4222,2.4244,2.4249,2.4258,2.428,2.4275,2.4294,2.4312,2.43,2.4327,2.4331,2.4348,2.4352,2.4372,2.4354,2.4368,2.4371,2.4375,2.4379,2.4274,2.4375,2.4375,2.4375,2.4375,2.4374,0,2.4302,2.4302,2.4322,2.4336,2.4353,2.433,2.4339,2.4354,2.4378,2.4384,2.44,2.4426,2.4445,2.444,2.4457,2.4474,2.4463,2.4479,2.4476,2.4477,2.4395,2.4385,2.4486,2.4486,2.4486,2.4486,2.4486,2.4486,2.436,2.4399,2.4391,2.4432,2.4432,2.4458,2.4465,2.4473,2.4477,2.4507,2.4523,2.4519,2.452,2.4536,2.4553,2.455,2.4557,2.4576,2.457,2.4494,2.4483,2.4472,2.4462,2.4578,2.4578,2.4649,2.465,2.465]}]]